{"data":{"norad_id":61597,"epoch":"2026-09-19T13:40:38.965152Z","epoch_age_seconds":98658,"freshness":"FRESH","line1":"1 61597U 24188D   26262.56989543  .00000439  00000+0  12016-2 0  9995","line2":"2 61597  87.8971   2.2960 0001602 109.9355 250.1945 13.11418552 96822","mean_motion":13.11418552,"eccentricity":0.0001602,"inclination_deg":87.8971,"raan_deg":2.296,"arg_perigee_deg":109.9355,"mean_anomaly_deg":250.1945,"bstar":0.0012016,"rev_number":9682,"period_min":109.80476048657,"perigee_km":1216.45964382,"apogee_km":1218.8933424632,"semimajor_km":7595.8134931416,"source":"CELESTRAK","updated_at":"2026-09-20T09:00:44.798621Z"}}